Location: Anglesey
(53.1800°N, 4.2200°W)
Time: 12:50:12
(UTC+00:00)

N. Korean satellite - Pass Details

Date: 17 October 2017
Orbit: 461 x 513 km, 97.2° (Epoch: 17 December)

Event Time Altitude Azimuth Distance (km) Brightness Sun altitude
Rises 20:07:45 0° 202° (SSW) 2,526 10.4 -17.4°
Reaches altitude 10° 20:10:15 10° 220° (SW) 1,643 9.7 -17.8°
Maximum altitude 20:12:50 19° 268° (W) 1,181 9.5 -18.2°
Drops below altitude 10° 20:15:26 10° 316° (NW) 1,637 10.0 -18.6°
Sets 20:17:56 0° 335° (NNW) 2,513 10.7 -18.9°
